Latest Coastal Weather Observations for Troughton Island

IDW60701

Issued at 8:15 pm WST Monday 24 November 2014 (issued every 10 minutes, with the page automatically refreshed every 10 minutes)

About coastal observations | Map of coastal stations | Coastal observations for WA | Marine services | Other Formats
Station Details ID: 001007 Name: TROUGHTON ISLAND Lat: -13.75 Lon: 126.15 Height: 6.0 m
Data from the previous 72 hours. | See also: Recent months at Troughton Island
Date/Time
WST
Temp

°C
Wind Pressure Rain
since 9am
mm
Weather Cloud Vis
km
Sea
Height
m
Swell
Dir
 
Speed
knots
Gust
knots
hPa Trend Height
m
Period
s
Dir
24/08:00pm 29.3 NNW 9 11 1009.3 - 0.0 - - - - - - -
24/07:30pm 29.5 NNW 10 11 1009.0 - 0.0 - - - - - - -
24/07:00pm 29.7 NW 10 13 1008.7 - 0.0 - - - - - - -
24/06:30pm 29.8 NW 10 12 1008.3 - 0.0 - - - - - - -
24/06:00pm 30.0 NW 11 14 1007.7 - 0.0 - - - - - - -
24/05:30pm 30.4 NW 11 13 1007.4 - 0.0 - - - - - - -
24/05:00pm 31.4 NW 10 13 1007.4 - 0.0 - - - - - - -
24/04:30pm 31.7 WNW 10 12 1007.2 - 0.0 - - - - - - -
24/04:00pm 32.3 WNW 9 10 1007.1 - 0.0 - - - - - - -
24/03:30pm 32.4 WNW 8 10 1007.1 - 0.0 - - - - - - -
24/03:00pm 32.5 WNW 9 11 1007.0 - 0.0 - - - - - - -
24/02:30pm 32.7 WNW 9 12 1007.2 - 0.0 - - - - - - -
24/02:00pm 32.9 W 11 12 1007.6 - 0.0 - - - - - - -
24/01:30pm 33.0 W 9 11 1008.1 - 0.0 - - - - - - -
24/01:00pm 32.5 W 9 10 1008.5 - 0.0 - - - - - - -
24/12:30pm 32.4 W 9 10 1008.9 - 0.0 - - - - - - -
24/12:00pm 32.9 W 9 10 1009.2 - 0.0 - - - - - - -
24/11:30am 32.7 W 8 9 1009.9 - 0.0 - - - - - - -
24/11:00am 32.7 WSW 9 11 1010.2 - 0.0 - - - - - - -
24/10:30am 33.4 WSW 10 11 1010.4 - 0.0 - - - - - - -
24/10:00am 33.1 WSW 10 11 1010.8 - 0.0 - - - - - - -
24/09:30am 33.5 SW 10 11 1011.1 - 0.0 - - - - - - -
24/09:00am 32.5 WSW 9 11 1011.2 - 0.0 - - - - - - -
24/08:30am 32.3 WSW 8 9 1011.5 - 0.0 - - - - - - -
24/08:00am 32.1 WSW 6 8 1011.6 - 0.0 - - - - - - -
24/07:30am 31.8 WSW 8 9 1011.4 - 0.0 - - - - - - -
24/07:00am 31.2 W 7 8 1011.2 - 0.0 - - - - - - -
24/06:30am 30.7 W 6 8 1011.1 - 0.0 - - - - - - -
24/06:00am 29.7 W 6 7 1010.8 - 0.0 - - - - - - -
24/05:30am 28.8 W 6 7 1010.5 - 0.0 - - - - - - -
24/05:00am 28.5 W 6 7 1010.2 - 0.0 - - - - - - -
24/04:30am 28.5 W 7 9 1009.9 - 0.0 - - - - - - -
24/04:00am 28.4 W 6 7 1009.7 - 0.0 - - - - - - -
24/03:30am 28.2 W 5 6 1009.6 - 0.0 - - - - - - -
24/03:00am 28.2 W 5 5 1009.3 - 0.0 - - - - - - -
24/02:30am 28.4 WNW 6 7 1009.3 - 0.0 - - - - - - -
24/02:00am 28.4 WNW 7 8 1009.4 - 0.0 - - - - - - -
24/01:30am 28.3 WNW 7 8 1009.5 - 0.0 - - - - - - -
24/01:00am 28.4 NW 7 8 1009.6 - 0.0 - - - - - - -
24/12:30am 28.4 NW 6 7 1009.9 - 0.0 - - - - - - -
24/12:00am 28.5 WNW 6 7 1010.3 - 0.0 - - - - - - -
 
Date/Time
WST
Temp

°C
Wind Pressure Rain
since 9am
mm
Weather Cloud Vis
km
Sea
Height
m
Swell
Dir
 
Speed
knots
Gust
knots
hPa Trend Height
m
Period
s
Dir
23/11:30pm 28.7 WNW 7 7 1010.7 - 0.0 - - - - - - -
23/11:00pm 28.8 W 7 8 1011.0 - 0.0 - - - - - - -
23/10:30pm 28.9 W 7 8 1011.3 - 0.0 - - - - - - -
23/10:00pm 28.9 W 6 7 1011.5 - 0.0 - - - - - - -
23/09:30pm 28.6 NW 6 6 1011.5 - 0.0 - - - - - - -
23/09:00pm 29.0 W 5 6 1011.4 - 0.0 - - - - - - -
23/08:30pm 28.8 NW 5 5 1011.2 - 0.0 - - - - - - -
23/08:00pm 29.0 NNW 5 6 1010.5 - 0.0 - - - - - - -
23/07:30pm 29.6 N 4 6 1010.2 - 0.0 - - - - - - -
23/07:00pm 29.6 N 5 7 1010.0 - 0.0 - - - - - - -
23/06:30pm 29.7 N 5 7 1009.5 - 0.0 - - - - - - -
23/06:00pm 29.8 N 6 7 1009.0 - 0.0 - - - - - - -
23/05:30pm 30.2 NNW 6 7 1008.8 - 0.0 - - - - - - -
23/05:00pm 30.5 N 8 9 1008.4 - 0.0 - - - - - - -
23/04:30pm 31.2 N 7 9 1008.5 - 0.0 - - - - - - -
23/04:00pm 30.7 N 9 11 1007.8 - 0.0 - - - - - - -
23/03:30pm 31.8 NNW 9 11 1007.8 - 0.0 - - - - - - -
23/03:00pm 32.0 NNW 9 11 1007.6 - 0.0 - - - - - - -
23/02:30pm 32.3 N 10 12 1007.8 - 0.0 - - - - - - -
23/02:00pm 31.4 N 10 13 1008.1 - 0.0 - - - - - - -
23/01:30pm 31.4 N 10 13 1008.4 - 0.0 - - - - - - -
23/01:00pm 31.9 N 9 11 1009.1 - 0.0 - - - - - - -
23/12:30pm 31.8 N 8 10 1009.7 - 0.0 - - - - - - -
23/12:00pm 31.6 N 8 11 1009.9 - 0.0 - - - - - - -
23/11:30am 32.6 N 8 10 1010.3 - 0.0 - - - - - - -
23/11:00am 31.3 N 7 10 1010.6 - 0.0 - - - - - - -
23/10:30am 33.3 NW 7 9 1010.8 - 0.0 - - - - - - -
23/10:00am 32.1 WNW 6 8 1011.1 - 0.0 - - - - - - -
23/09:30am 32.3 WSW 5 7 1011.3 - 0.0 - - - - - - -
23/09:00am 32.4 WSW 5 6 1011.3 - 0.0 - - - - - - -
23/08:30am 32.2 WSW 5 6 1011.3 - 0.0 - - - - - - -
23/08:00am 31.9 SW 5 6 1011.4 - 0.0 - - - - - - -
23/07:30am 31.6 SW 6 7 1011.3 - 0.0 - - - - - - -
23/07:00am 31.0 SSW 6 7 1011.2 - 0.0 - - - - - - -
23/06:30am 30.9 SW 6 8 1010.9 - 0.0 - - - - - - -
23/06:00am 30.2 SW 8 9 1010.4 - 0.0 - - - - - - -
23/05:30am 29.5 SW 8 9 1010.1 - 0.0 - - - - - - -
23/05:00am 29.0 SW 6 7 1009.9 - 0.0 - - - - - - -
23/04:30am 29.1 SW 7 8 1009.8 - 0.0 - - - - - - -
23/04:00am 29.0 SSW 6 7 1009.7 - 0.0 - - - - - - -
23/03:30am 28.9 SW 5 7 1009.5 - 0.0 - - - - - - -
23/03:00am 28.6 WSW 4 5 1009.3 - 0.0 - - - - - - -
23/02:30am 28.7 SW 4 5 1009.4 - 0.0 - - - - - - -
23/02:00am 28.7 SSW 4 5 1009.6 - 0.0 - - - - - - -
23/01:30am 29.1 S 3 4 1010.1 - 0.0 - - - - - - -
23/01:00am 29.0 CALM 0 0 1010.4 - 0.0 - - - - - - -
23/12:30am 29.0 CALM 0 1 1010.4 - 0.0 - - - - - - -
23/12:00am 29.1 SW 5 6 1010.7 - 0.0 - - - - - - -
 
Date/Time
WST
Temp

°C
Wind Pressure Rain
since 9am
mm
Weather Cloud Vis
km
Sea
Height
m
Swell
Dir
 
Speed
knots
Gust
knots
hPa Trend Height
m
Period
s
Dir
22/11:30pm 29.1 WSW 5 6 1010.7 - 0.0 - - - - - - -
22/11:00pm 29.2 W 7 8 1011.0 - 0.0 - - - - - - -
22/10:30pm 29.2 WNW 5 6 1011.4 - 0.0 - - - - - - -
22/10:00pm 29.0 NW 4 6 1011.6 - 0.0 - - - - - - -
22/09:30pm 29.8 N 7 8 1011.4 - 0.0 - - - - - - -
22/09:00pm 29.8 N 8 9 1011.1 - 0.0 - - - - - - -
22/08:30pm 29.7 N 8 10 1011.4 - 0.0 - - - - - - -
22/08:00pm 29.8 N 8 10 1011.5 - 0.0 - - - - - - -
22/07:30pm 29.8 N 7 11 1011.3 - 0.0 - - - - - - -
22/07:00pm 30.0 N 7 9 1011.0 - 0.0 - - - - - - -
22/06:30pm 30.0 N 7 9 1010.6 - 0.0 - - - - - - -
22/06:00pm 30.0 N 9 11 1009.9 - 0.0 - - - - - - -
22/05:30pm 30.5 NNW 10 13 1009.4 - 0.0 - - - - - - -
22/05:00pm 31.1 NNW 12 14 1008.7 - 0.0 - - - - - - -
22/04:30pm 31.5 NNW 11 13 1008.5 - 0.0 - - - - - - -
22/04:00pm 31.6 NNW 11 13 1008.5 - 0.0 - - - - - - -
22/03:30pm 32.4 NW 10 12 1008.4 - 0.0 - - - - - - -
22/03:00pm 32.1 NNW 9 12 1008.3 - 0.0 - - - - - - -
22/02:30pm 32.2 NNW 9 11 1009.0 - 0.0 - - - - - - -
22/02:00pm 32.3 NNW 8 10 1009.6 - 0.0 - - - - - - -
22/01:30pm 32.6 NW 7 9 1009.9 - 0.0 - - - - - - -
22/01:00pm 33.1 WNW 6 8 1010.1 - 0.0 - - - - - - -
22/12:30pm 32.5 WNW 6 8 1010.4 - 0.0 - - - - - - -
22/12:00pm 31.8 WNW 7 8 1010.5 - 0.0 - - - - - - -
22/11:30am 32.1 NW 7 8 1010.8 - 0.0 - - - - - - -
22/11:00am 32.2 WNW 6 8 1011.2 - 0.0 - - - - - - -
22/10:30am 32.3 NNW 6 9 1011.5 - 0.0 - - - - - - -
22/10:00am 32.0 N 6 8 1011.8 - 0.0 - - - - - - -
22/09:30am 31.1 WNW 5 7 1011.9 - 0.0 - - - - - - -
22/09:00am 30.8 WNW 4 6 1012.0 - 0.0 - - - - - - -
22/08:30am 31.6 W 3 4 1012.3 - 0.0 - - - - - - -
22/08:00am 31.4 W 4 5 1012.2 - 0.0 - - - - - - -
22/07:30am 31.1 W 4 5 1011.6 - 0.0 - - - - - - -
22/07:00am 30.8 W 4 5 1011.1 - 0.0 - - - - - - -
22/06:30am 30.4 WSW 4 5 1010.9 - 0.0 - - - - - - -
22/06:00am 29.8 SW 4 5 1010.5 - 0.0 - - - - - - -
22/05:30am 28.9 SW 4 5 1010.2 - 0.0 - - - - - - -
22/05:00am 28.5 WSW 5 6 1009.8 - 0.0 - - - - - - -
22/04:30am 28.6 W 6 7 1009.4 - 0.0 - - - - - - -
22/04:00am 28.6 W 6 7 1009.2 - 0.0 - - - - - - -
22/03:30am 28.7 WSW 5 5 1009.1 - 0.0 - - - - - - -
22/03:00am 28.8 WSW 5 6 1008.8 - 0.0 - - - - - - -
22/02:30am 28.9 SW 4 6 1008.7 - 0.0 - - - - - - -
22/02:00am 29.2 SW 4 5 1009.0 - 0.0 - - - - - - -
22/01:30am 29.2 SW 7 8 1009.1 - 0.0 - - - - - - -
22/01:00am 29.4 SW 6 7 1009.2 - 0.0 - - - - - - -
22/12:30am 29.5 WSW 7 8 1009.6 - 0.0 - - - - - - -
22/12:00am 29.3 W 7 8 1009.5 - 0.0 - - - - - - -
 
Date/Time
WST
Temp

°C
Wind Pressure Rain
since 9am
mm
Weather Cloud Vis
km
Sea
Height
m
Swell
Dir
 
Speed
knots
Gust
knots
hPa Trend Height
m
Period
s
Dir
21/11:30pm 29.3 W 5 5 1010.2 - 0.0 - - - - - - -
21/11:00pm 29.1 NW 5 6 1010.4 - 0.0 - - - - - - -
21/10:30pm 29.4 WNW 6 7 1010.6 - 0.0 - - - - - - -
21/10:00pm 29.3 NW 5 6 1010.5 - 0.0 - - - - - - -
21/09:30pm 29.3 NW 6 7 1010.6 - 0.0 - - - - - - -
21/09:00pm 29.3 NW 5 6 1010.6 - 0.0 - - - - - - -
21/08:30pm 29.5 NW 7 9 1010.6 - 0.0 - - - - - - -

Other Formats:

Comma delimited format used in spreadsheet applications
http://www.bom.gov.au/fwo/IDW60701/IDW60701.94102.axf

JavaScript Object Notation format (JSON) in row-major order
http://www.bom.gov.au/fwo/IDW60701/IDW60701.94102.json